Simultaneous Nadir Overpasses (SNOs) Predictions

Prediction of SNOs between AQUA and METOP-C Satellite Orbit:

Table of predicted SNOs for the next 14.0 days since TLE Epoch: 8/20/2022
Index Date (AQUA) Time (AQUA) Lat,Lon (AQUA) SZA (AQUA ) Date (METOP-C) Time (METOP-C) Lat,Lon (METOP-C) SZA (METOP-C ) Distance(km) Time Diff (sec)
1 08/22/2022 04:02:45 -74.00, -65.90 117.79 08/22/2022 04:01:54 -74.02, -65.84 117.77 2.44 51
2 08/22/2022 04:52:13 74.07, 101.60 62.29 08/22/2022 04:52:34 74.06, 101.58 62.28 1.39 21
3 08/24/2022 22:46:50 73.85,-166.56 62.99 08/24/2022 22:45:38 73.81,-167.25 62.99 21.77 72
4 08/24/2022 23:36:19 -74.03, 0.66 116.81 08/24/2022 23:36:14 -74.05, 0.65 116.79 2.14 5
5 08/25/2022 00:25:47 74.10, 168.14 63.28 08/25/2022 00:26:54 74.09, 168.07 63.26 2.65 67
6 08/27/2022 18:20:26 74.01,-100.30 64.13 08/27/2022 18:19:54 74.04,-100.30 64.17 3.57 32
7 08/27/2022 19:09:53 -74.09, 67.16 115.78 08/27/2022 19:10:34 -74.09, 67.14 115.78 0.82 41
8 08/30/2022 13:04:31 -74.01, 158.68 114.89 08/30/2022 13:03:34 -73.99, 158.65 114.91 3.05 57
9 08/30/2022 13:53:59 74.09, -33.86 65.21 08/30/2022 13:54:13 74.07, -33.83 65.19 3.02 14
10 08/30/2022 14:43:35 -74.63, 132.51 114.21 08/30/2022 14:44:42 -74.65, 135.00 114.26 73.57 67
11 09/02/2022 07:48:31 73.68, 58.41 65.76 09/02/2022 07:47:21 73.61, 56.84 65.75 49.77 70
12 09/02/2022 08:38:04 -74.06,-134.80 113.82 09/02/2022 08:37:53 -74.06,-134.76 113.82 1.22 11
13 09/02/2022 09:27:32 74.15, 32.65 66.28 09/02/2022 09:28:32 74.14, 32.76 66.26 3.46 60



Historial Predications of SNOs between AQUA and METOP-C
